Flag for Germany Weather past 2 weeks in Senftenberg, Brandenburg, Germany

Now
49 °F

Drizzle. Overcast.


Feels Like: 47 °F
Forecast: 39 / 49 °F
Wind: 5 mph from South

Location: Cottbus

Current Time: Mar 29, 2015 at 9:49:17 PM

Latest Report: Mar 29, 2015 at 9:00 PM


Visibility: 31 mi

Pressure: 29.32 "Hg

Humidity: 93%

Dew point: 47 °F

Location of SenftenbergLocation

Historic Weather in Senftenberg — Graph

°F

Senftenberg temperature yesterday

Maximum temperature yesterday: 49 °F (at 5:00 PM)
Minimum temperature yesterday: 40 °F (at 8:00 PM)
Average temperature yesterday: 44 °F

Past Weeks' High & Low Weather Summary

 TemperatureHumidityPressure
High65 °F (Mar 25, 4:00 PM)98% (Mar 25, 6:00 AM)30.49 "Hg (Mar 25, 6:00 AM)
Low23 °F (Mar 20, 6:00 AM)20% (Mar 18, 4:00 PM)29.38 "Hg (Mar 29, 8:00 PM)
Average44 °F69%30.11 "Hg
* Reported Mar 14 7:00 PM — Mar 29 8:00 PM, Senftenberg, Weather by CustomWeather, © 2015

Note: Actual official high and low records may vary slightly from our data, if they occured in-between our weather recording intervals... More about our weather records

Advertising

Senftenberg weather history for previous 24 hours

 ConditionsComfort  
Time TempWeatherWind HumidityBarometerVisibility
8:00 PM
Sun, Mar 29
49 °FLight freezing rain. Low clouds.5 mph94%29.38 "Hg8 mi
7:00 PM49 °FLight freezing rain. Low clouds.5 mph94%29.41 "Hg6 mi
6:00 PM50 °FLight freezing rain. Overcast.7 mph88%29.44 "Hg15 mi
5:00 PM51 °FLight rain. Low clouds.5 mph92%29.47 "Hg4 mi
4:00 PM53 °FLight rain. Low clouds.5 mph77%29.50 "Hg6 mi
3:00 PM55 °FLight rain. Overcast.8 mph65%29.50 "Hg25 mi
2:00 PM56 °FOvercast.6 mph65%29.55 "Hg34 mi
1:00 PM55 °FOvercast.6 mph72%29.57 "Hg28 mi
12:00 PM54 °FOvercast.8 mph75%29.60 "Hg28 mi
11:00 AM53 °FOvercast.6 mph79%29.62 "Hg22 mi
10:00 AM51 °FOvercast.3 mph86%29.63 "Hg11 mi
9:00 AM47 °FDrizzle. Low clouds.5 mph95%29.66 "Hg3 mi
8:00 AM47 °FOvercast.3 mph91%29.68 "Hg6 mi
7:00 AM46 °FOvercast.3 mph90%29.70 "Hg6 mi
5:00 AM46 °FOvercast.3 mph77%29.76 "Hg7 mi
4:00 AM46 °FOvercast.5 mph70%29.79 "Hg9 mi
3:00 AM45 °FOvercast.5 mph65%29.83 "Hg10 mi
1:00 AM44 °FOvercast.3 mph65%29.85 "Hg10 mi
12:00 AM43 °FOvercast.3 mph66%29.89 "Hg10 mi
11:00 PM
Sat, Mar 28
42 °FOvercast.3 mph70%29.91 "Hg8 mi
10:00 PM41 °FOvercast.3 mph70%29.95 "Hg9 mi
9:00 PM41 °FPassing clouds.2 mph66%29.98 "Hg9 mi
Weather by CustomWeather, © 2015

See weather overviewHow to use our weather pages